Time,TemperatureF,DewpointF,PressureIn,WindDirection,WindDirectionDegrees,WindSpeedMPH,WindSpeedGustMPH,Humidity,HourlyPrecipIn,Conditions,Clouds,dailyrainin,SoftwareType,DateUTC
2013-04-07 00:02:00,70.0,34.2,29.95,West,270,6.3,9.2,27,0.00,,,0.00,WUHU216HW,2013-04-07 07:02:00,
2013-04-07 00:07:00,70.0,35.2,29.95,NW,315,6.0,9.2,28,0.00,,,0.00,WUHU216HW,2013-04-07 07:07:00,
2013-04-07 00:12:00,70.0,35.2,29.95,WNW,293,6.3,10.3,28,0.00,,,0.00,WUHU216HW,2013-04-07 07:12:00,
2013-04-07 00:17:00,69.8,35.1,29.95,WNW,293,9.4,12.8,28,0.00,,,0.00,WUHU216HW,2013-04-07 07:17:00,
2013-04-07 00:22:00,69.8,35.1,29.95,WNW,293,5.1,12.8,28,0.00,,,0.00,WUHU216HW,2013-04-07 07:22:00,
2013-04-07 00:27:00,69.7,34.9,29.95,West,270,5.4,10.7,28,0.00,,,0.00,WUHU216HW,2013-04-07 07:27:00,
2013-04-07 00:32:00,69.5,34.7,29.95,WNW,293,5.4,8.7,28,0.00,,,0.00,WUHU216HW,2013-04-07 07:32:00,
2013-04-07 00:37:00,69.3,34.6,29.95,NW,315,6.7,6.9,28,0.00,,,0.00,WUHU216HW,2013-04-07 07:37:00,
2013-04-07 00:42:00,68.9,34.3,29.95,West,270,4.3,7.6,28,0.00,,,0.00,WUHU216HW,2013-04-07 07:42:00,
2013-04-07 00:47:00,68.8,34.1,29.95,NNW,338,2.5,7.6,28,0.00,,,0.00,WUHU216HW,2013-04-07 07:47:00,
2013-04-07 00:52:00,68.4,33.9,29.95,WNW,293,4.0,5.4,28,0.00,,,0.00,WUHU216HW,2013-04-07 07:52:00,
2013-04-07 00:57:00,68.0,33.5,29.95,West,270,5.4,5.4,28,0.00,,,0.00,WUHU216HW,2013-04-07 07:57:00,
2013-04-07 01:02:00,67.5,34.0,29.95,West,270,3.1,6.3,29,0.00,,,0.00,WUHU216HW,2013-04-07 08:02:00,
2013-04-07 01:07:00,67.3,33.9,29.95,WNW,293,5.4,6.3,29,0.00,,,0.00,WUHU216HW,2013-04-07 08:07:00,
2013-04-07 01:12:00,67.0,33.6,29.95,NW,315,3.6,6.3,29,0.00,,,0.00,WUHU216HW,2013-04-07 08:12:00,
2013-04-07 01:17:00,66.6,33.3,29.95,WNW,293,2.0,4.9,29,0.00,,,0.00,WUHU216HW,2013-04-07 08:17:00,
2013-04-07 01:22:00,66.4,33.1,29.95,WSW,248,1.8,3.6,29,0.00,,,0.00,WUHU216HW,2013-04-07 08:22:00,
2013-04-07 01:27:00,66.1,32.9,29.95,WNW,293,2.2,2.7,29,0.00,,,0.00,WUHU216HW,2013-04-07 08:27:00,
2013-04-07 01:32:00,65.9,32.7,29.94,NW,315,2.7,3.1,29,0.00,,,0.00,WUHU216HW,2013-04-07 08:32:00,
2013-04-07 01:37:00,65.5,33.4,29.94,North,0,1.1,3.1,30,0.00,,,0.00,WUHU216HW,2013-04-07 08:37:00,
2013-04-07 01:42:00,65.3,33.2,29.93,NNE,23,1.1,2.7,30,0.00,,,0.00,WUHU216HW,2013-04-07 08:42:00,
2013-04-07 01:47:00,65.2,33.0,29.93,North,0,1.1,1.8,30,0.00,,,0.00,WUHU216HW,2013-04-07 08:47:00,
2013-04-07 01:52:00,65.0,32.9,29.93,WNW,293,0.0,1.8,30,0.00,,,0.00,WUHU216HW,2013-04-07 08:52:00,
2013-04-07 01:57:00,64.8,32.8,29.93,SE,135,1.3,1.3,30,0.00,,,0.00,WUHU216HW,2013-04-07 08:57:00,
2013-04-07 02:02:00,64.4,32.4,29.93,ENE,68,2.2,2.2,30,0.00,,,0.00,WUHU216HW,2013-04-07 09:02:00,
2013-04-07 02:07:00,64.3,32.2,29.93,ENE,68,2.5,2.5,30,0.00,,,0.00,WUHU216HW,2013-04-07 09:07:00,
2013-04-07 02:12:00,64.1,32.0,29.92,ENE,68,3.4,3.8,30,0.00,,,0.00,WUHU216HW,2013-04-07 09:12:00,
2013-04-07 02:17:00,63.7,31.8,29.92,ENE,68,2.5,3.8,30,0.00,,,0.00,WUHU216HW,2013-04-07 09:17:00,
2013-04-07 02:22:00,63.4,31.4,29.92,ESE,113,2.5,3.4,30,0.00,,,0.00,WUHU216HW,2013-04-07 09:22:00,
2013-04-07 02:28:00,63.0,31.9,29.92,ESE,113,2.5,3.4,31,0.00,,,0.00,WUHU216HW,2013-04-07 09:28:00,
2013-04-07 02:33:00,62.8,31.7,29.91,East,90,5.4,5.4,31,0.00,,,0.00,WUHU216HW,2013-04-07 09:33:00,
2013-04-07 02:38:00,62.6,31.5,29.91,ENE,68,4.0,5.4,31,0.00,,,0.00,WUHU216HW,2013-04-07 09:38:00,
2013-04-07 02:43:00,62.6,32.2,29.91,ENE,68,3.4,5.4,32,0.00,,,0.00,WUHU216HW,2013-04-07 09:43:00,
2013-04-07 02:48:00,62.6,32.2,29.91,ESE,113,3.4,5.6,32,0.00,,,0.00,WUHU216HW,2013-04-07 09:48:00,
2013-04-07 02:53:00,62.6,32.2,29.90,ENE,68,4.3,5.6,32,0.00,,,0.00,WUHU216HW,2013-04-07 09:53:00,
2013-04-07 02:58:00,62.6,32.2,29.90,ESE,113,2.7,5.4,32,0.00,,,0.00,WUHU216HW,2013-04-07 09:58:00,
2013-04-07 03:03:00,62.6,32.2,29.90,ESE,113,5.1,6.7,32,0.00,,,0.00,WUHU216HW,2013-04-07 10:03:00,
2013-04-07 03:08:00,62.5,32.0,29.90,ESE,113,5.1,6.7,32,0.00,,,0.00,WUHU216HW,2013-04-07 10:08:00,
2013-04-07 03:13:00,62.3,31.9,29.90,ENE,68,3.6,6.7,32,0.00,,,0.00,WUHU216HW,2013-04-07 10:13:00,
2013-04-07 03:18:00,62.3,31.9,29.90,ENE,68,3.8,5.4,32,0.00,,,0.00,WUHU216HW,2013-04-07 10:18:00,
2013-04-07 03:23:00,62.1,31.8,29.90,ENE,68,3.6,4.5,32,0.00,,,0.00,WUHU216HW,2013-04-07 10:23:00,
2013-04-07 03:27:00,61.9,31.6,29.90,East,90,2.7,5.1,32,0.00,,,0.00,WUHU216HW,2013-04-07 10:27:00,
2013-04-07 03:32:00,61.7,31.4,29.90,ENE,68,4.3,5.1,32,0.00,,,0.00,WUHU216HW,2013-04-07 10:32:00,
2013-04-07 03:37:00,61.7,31.4,29.89,ESE,113,4.5,4.9,32,0.00,,,0.00,WUHU216HW,2013-04-07 10:37:00,
2013-04-07 03:42:00,61.7,31.4,29.89,East,90,3.4,5.8,32,0.00,,,0.00,WUHU216HW,2013-04-07 10:42:00,
2013-04-07 03:48:00,61.7,31.4,29.89,ESE,113,3.4,5.8,32,0.00,,,0.00,WUHU216HW,2013-04-07 10:48:00,
2013-04-07 03:53:00,61.7,31.4,29.88,East,90,4.9,5.6,32,0.00,,,0.00,WUHU216HW,2013-04-07 10:53:00,
2013-04-07 03:58:00,61.6,31.2,29.89,East,90,3.4,5.4,32,0.00,,,0.00,WUHU216HW,2013-04-07 10:58:00,
2013-04-07 04:03:00,61.6,32.0,29.89,East,90,6.3,7.2,33,0.00,,,0.00,WUHU216HW,2013-04-07 11:03:00,
2013-04-07 04:08:00,61.6,32.0,29.89,NE,45,3.4,7.2,33,0.00,,,0.00,WUHU216HW,2013-04-07 11:08:00,
2013-04-07 04:13:00,61.4,31.8,29.89,ESE,113,5.4,6.3,33,0.00,,,0.00,WUHU216HW,2013-04-07 11:13:00,
2013-04-07 04:18:00,61.4,31.8,29.88,ENE,68,3.6,5.4,33,0.00,,,0.00,WUHU216HW,2013-04-07 11:18:00,
2013-04-07 04:23:00,61.2,31.7,29.88,ESE,113,5.4,5.6,33,0.00,,,0.00,WUHU216HW,2013-04-07 11:23:00,
2013-04-07 04:28:00,61.2,31.7,29.88,ESE,113,6.3,6.3,33,0.00,,,0.00,WUHU216HW,2013-04-07 11:28:00,
2013-04-07 04:33:00,61.2,31.7,29.88,East,90,4.9,6.3,33,0.00,,,0.00,WUHU216HW,2013-04-07 11:33:00,
2013-04-07 04:38:00,61.2,31.7,29.88,ESE,113,6.7,6.7,33,0.00,,,0.00,WUHU216HW,2013-04-07 11:38:00,
2013-04-07 04:44:00,61.4,31.8,29.88,ENE,68,6.5,6.9,33,0.00,,,0.00,WUHU216HW,2013-04-07 11:44:00,
2013-04-07 04:49:00,61.6,32.0,29.89,SE,135,3.6,6.9,33,0.00,,,0.00,WUHU216HW,2013-04-07 11:49:00,
2013-04-07 04:54:00,61.6,32.0,29.89,East,90,5.6,7.4,33,0.00,,,0.00,WUHU216HW,2013-04-07 11:54:00,
2013-04-07 04:59:00,61.2,31.7,29.89,SSE,158,5.4,8.1,33,0.00,,,0.00,WUHU216HW,2013-04-07 11:59:00,
2013-04-07 05:04:00,61.0,32.2,29.89,East,90,6.5,8.1,34,0.00,,,0.00,WUHU216HW,2013-04-07 12:04:00,
2013-04-07 05:10:00,60.8,32.0,29.89,East,90,5.8,7.4,34,0.00,,,0.00,WUHU216HW,2013-04-07 12:10:00,
2013-04-07 05:15:00,60.8,32.0,29.89,NE,45,3.8,6.7,34,0.00,,,0.00,WUHU216HW,2013-04-07 12:15:00,
2013-04-07 05:20:00,60.8,32.8,29.90,ENE,68,5.1,5.6,35,0.00,,,0.00,WUHU216HW,2013-04-07 12:20:00,
2013-04-07 05:25:00,60.8,33.5,29.90,ENE,68,4.7,6.0,36,0.00,,,0.00,WUHU216HW,2013-04-07 12:25:00,
2013-04-07 05:30:00,61.2,33.9,29.90,East,90,3.4,6.0,36,0.00,,,0.00,WUHU216HW,2013-04-07 12:30:00,
2013-04-07 05:35:00,61.2,33.9,29.90,ENE,68,3.6,4.9,36,0.00,,,0.00,WUHU216HW,2013-04-07 12:35:00,
2013-04-07 05:40:00,61.0,33.7,29.90,East,90,3.4,5.4,36,0.00,,,0.00,WUHU216HW,2013-04-07 12:40:00,
2013-04-07 05:45:00,61.0,33.7,29.90,ENE,68,4.5,5.4,36,0.00,,,0.00,WUHU216HW,2013-04-07 12:45:00,
2013-04-07 05:50:00,60.8,33.5,29.90,NNE,23,4.0,4.7,36,0.00,,,0.00,WUHU216HW,2013-04-07 12:50:00,
2013-04-07 05:55:00,60.8,33.5,29.90,ENE,68,3.6,4.7,36,0.00,,,0.00,WUHU216HW,2013-04-07 12:55:00,
2013-04-07 06:00:00,60.8,33.5,29.90,ENE,68,3.6,4.9,36,0.00,,,0.00,WUHU216HW,2013-04-07 13:00:00,
2013-04-07 06:05:00,61.2,33.9,29.90,NNE,23,3.8,4.9,36,0.00,,,0.00,WUHU216HW,2013-04-07 13:05:00,
2013-04-07 06:10:00,61.6,34.1,29.90,NE,45,3.6,5.8,36,0.00,,,0.00,WUHU216HW,2013-04-07 13:10:00,
2013-04-07 06:15:00,61.6,33.4,29.90,East,90,3.6,5.8,35,0.00,,,0.00,WUHU216HW,2013-04-07 13:15:00,
2013-04-07 06:20:00,61.6,33.4,29.90,ESE,113,1.8,4.3,35,0.00,,,0.00,WUHU216HW,2013-04-07 13:20:00,
2013-04-07 06:25:00,61.4,32.5,29.91,ESE,113,1.8,4.3,34,0.00,,,0.00,WUHU216HW,2013-04-07 13:25:00,
2013-04-07 06:30:00,61.2,33.9,29.91,SW,225,1.6,3.6,36,0.00,,,0.00,WUHU216HW,2013-04-07 13:30:00,
2013-04-07 06:36:00,60.8,33.5,29.91,WSW,248,1.6,3.8,36,0.00,,,0.00,WUHU216HW,2013-04-07 13:36:00,
2013-04-07 06:41:00,60.5,33.2,29.91,SSW,203,0.0,3.8,36,0.00,,,0.00,WUHU216HW,2013-04-07 13:41:00,
2013-04-07 06:46:00,59.9,33.4,29.91,South,180,0.0,1.1,37,0.00,,,0.00,WUHU216HW,2013-04-07 13:46:00,
2013-04-07 06:51:00,59.6,33.1,29.91,ESE,113,0.2,0.2,37,0.00,,,0.00,WUHU216HW,2013-04-07 13:51:00,
2013-04-07 06:56:00,59.4,33.7,29.91,ESE,113,0.9,1.8,38,0.00,,,0.00,WUHU216HW,2013-04-07 13:56:00,
2013-04-07 07:01:00,59.2,33.5,29.91,ESE,113,2.2,2.5,38,0.00,,,0.00,WUHU216HW,2013-04-07 14:01:00,
2013-04-07 07:07:00,59.0,34.0,29.92,East,90,0.9,2.5,39,0.00,,,0.00,WUHU216HW,2013-04-07 14:07:00,
2013-04-07 07:12:00,59.0,34.0,29.92,East,90,0.9,2.5,39,0.00,,,0.00,WUHU216HW,2013-04-07 14:12:00,
2013-04-07 07:16:00,59.2,34.9,29.92,WNW,293,1.1,2.5,40,0.00,,,0.00,WUHU216HW,2013-04-07 14:16:00,
2013-04-07 07:22:00,59.4,35.1,29.92,South,180,0.4,1.8,40,0.00,,,0.00,WUHU216HW,2013-04-07 14:22:00,
2013-04-07 07:27:00,59.6,35.2,29.92,SE,135,2.5,2.7,40,0.00,,,0.00,WUHU216HW,2013-04-07 14:27:00,
2013-04-07 07:32:00,59.8,35.4,29.93,SE,135,2.5,2.9,40,0.00,,,0.00,WUHU216HW,2013-04-07 14:32:00,
2013-04-07 07:37:00,59.8,35.4,29.93,SE,135,2.7,3.4,40,0.00,,,0.00,WUHU216HW,2013-04-07 14:37:00,
2013-04-07 07:42:00,59.9,35.6,29.92,ESE,113,2.7,3.4,40,0.00,,,0.00,WUHU216HW,2013-04-07 14:42:00,
2013-04-07 07:47:00,60.1,35.7,29.93,SSE,158,1.1,2.9,40,0.00,,,0.00,WUHU216HW,2013-04-07 14:47:00,
2013-04-07 07:52:00,60.5,36.0,29.93,SE,135,3.6,4.7,40,0.00,,,0.00,WUHU216HW,2013-04-07 14:52:00,
2013-04-07 08:30:00,63.4,37.2,29.93,SSW,203,6.3,6.3,38,0.00,,,0.00,WUHU216HW,2013-04-07 15:30:00,
2013-04-07 08:35:00,63.9,37.7,29.93,SE,135,4.3,6.7,38,0.00,,,0.00,WUHU216HW,2013-04-07 15:35:00,
2013-04-07 08:40:00,64.4,37.4,29.93,SE,135,2.5,6.7,37,0.00,,,0.00,WUHU216HW,2013-04-07 15:40:00,
2013-04-07 08:45:00,64.8,37.8,29.93,SE,135,5.4,6.7,37,0.00,,,0.00,WUHU216HW,2013-04-07 15:45:00,
2013-04-07 08:50:00,65.2,38.1,29.93,SE,135,4.5,8.3,37,0.00,,,0.00,WUHU216HW,2013-04-07 15:50:00,
2013-04-07 08:55:00,65.5,37.7,29.93,WSW,248,4.3,8.3,36,0.00,,,0.00,WUHU216HW,2013-04-07 15:55:00,
2013-04-07 09:00:00,66.1,38.2,29.93,SSE,158,4.5,7.2,36,0.00,,,0.00,WUHU216HW,2013-04-07 16:00:00,
2013-04-07 09:05:00,66.6,37.2,29.93,SSW,203,3.1,7.4,34,0.00,,,0.00,WUHU216HW,2013-04-07 16:05:00,
2013-04-07 09:10:00,67.1,38.4,29.93,ESE,113,6.5,8.5,35,0.00,,,0.00,WUHU216HW,2013-04-07 16:10:00,
2013-04-07 09:15:00,67.5,38.0,29.93,East,90,6.7,9.2,34,0.00,,,0.00,WUHU216HW,2013-04-07 16:15:00,
2013-04-07 09:20:00,68.0,38.4,29.93,ESE,113,8.5,10.1,34,0.00,,,0.00,WUHU216HW,2013-04-07 16:20:00,
2013-04-07 09:25:00,68.4,38.0,29.93,SSE,158,5.8,10.1,33,0.00,,,0.00,WUHU216HW,2013-04-07 16:25:00,
2013-04-07 09:30:00,68.9,37.7,29.93,SE,135,3.6,10.1,32,0.00,,,0.00,WUHU216HW,2013-04-07 16:30:00,
2013-04-07 09:35:00,69.3,38.1,29.93,SSE,158,6.9,10.1,32,0.00,,,0.00,WUHU216HW,2013-04-07 16:35:00,
2013-04-07 09:40:00,69.5,38.3,29.93,ESE,113,4.5,8.5,32,0.00,,,0.00,WUHU216HW,2013-04-07 16:40:00,
2013-04-07 09:45:00,70.0,38.0,29.93,ESE,113,6.7,8.5,31,0.00,,,0.00,WUHU216HW,2013-04-07 16:45:00,
2013-04-07 09:50:00,70.2,38.2,29.93,East,90,4.7,8.5,31,0.00,,,0.00,WUHU216HW,2013-04-07 16:50:00,
2013-04-07 09:55:00,70.6,37.7,29.93,SSE,158,11.2,11.2,30,0.00,,,0.00,WUHU216HW,2013-04-07 16:55:00,
2013-04-07 10:01:00,70.9,38.1,29.93,SE,135,3.1,11.2,30,0.00,,,0.00,WUHU216HW,2013-04-07 17:01:00,
2013-04-07 10:06:00,71.3,38.3,29.93,ESE,113,5.1,11.2,30,0.00,,,0.00,WUHU216HW,2013-04-07 17:06:00,
2013-04-07 10:11:00,71.6,37.7,29.93,ESE,113,4.7,11.0,29,0.00,,,0.00,WUHU216HW,2013-04-07 17:11:00,
2013-04-07 10:16:00,72.0,38.0,29.93,SSW,203,2.0,11.0,29,0.00,,,0.00,WUHU216HW,2013-04-07 17:16:00,
2013-04-07 10:21:00,72.4,38.3,29.93,SSE,158,4.0,8.7,29,0.00,,,0.00,WUHU216HW,2013-04-07 17:21:00,
2013-04-07 10:26:00,72.9,37.7,29.93,ENE,68,3.1,8.5,28,0.00,,,0.00,WUHU216HW,2013-04-07 17:26:00,
2013-04-07 10:31:00,73.1,37.8,29.93,SSE,158,3.1,8.5,28,0.00,,,0.00,WUHU216HW,2013-04-07 17:31:00,
2013-04-07 10:36:00,73.4,38.2,29.93,NNE,23,4.3,10.1,28,0.00,,,0.00,WUHU216HW,2013-04-07 17:36:00,
2013-04-07 10:41:00,74.0,38.6,29.93,South,180,3.1,10.1,28,0.00,,,0.00,WUHU216HW,2013-04-07 17:41:00,
2013-04-07 10:46:00,74.2,36.7,29.93,East,90,8.5,10.7,26,0.00,,,0.00,WUHU216HW,2013-04-07 17:46:00,
2013-04-07 10:51:00,74.9,37.4,29.93,SW,225,6.3,10.7,26,0.00,,,0.00,WUHU216HW,2013-04-07 17:51:00,
2013-04-07 10:57:00,74.9,36.4,29.93,South,180,2.7,8.9,25,0.00,,,0.00,WUHU216HW,2013-04-07 17:57:00,
2013-04-07 11:02:00,75.1,36.5,29.93,SE,135,9.2,9.2,25,0.00,,,0.00,WUHU216HW,2013-04-07 18:02:00,
2013-04-07 11:07:00,75.6,36.9,29.93,SE,135,3.8,9.2,25,0.00,,,0.00,WUHU216HW,2013-04-07 18:07:00,
2013-04-07 11:12:00,76.0,36.2,29.93,SE,135,3.4,9.2,24,0.00,,,0.00,WUHU216HW,2013-04-07 18:12:00,
2013-04-07 11:17:00,76.5,35.7,29.93,SSE,158,7.6,10.7,23,0.00,,,0.00,WUHU216HW,2013-04-07 18:17:00,
2013-04-07 11:22:00,77.2,37.3,29.93,SE,135,2.5,10.7,24,0.00,,,0.00,WUHU216HW,2013-04-07 18:22:00,
2013-04-07 11:27:00,77.8,36.6,29.93,SE,135,2.5,8.5,23,0.00,,,0.00,WUHU216HW,2013-04-07 18:27:00,
2013-04-07 11:32:00,77.8,36.6,29.93,SSW,203,2.0,8.5,23,0.00,,,0.00,WUHU216HW,2013-04-07 18:32:00,
2013-04-07 11:37:00,77.9,36.8,29.93,East,90,2.9,6.0,23,0.00,,,0.00,WUHU216HW,2013-04-07 18:37:00,
2013-04-07 11:42:00,78.3,36.0,29.93,NNE,23,3.6,6.3,22,0.00,,,0.00,WUHU216HW,2013-04-07 18:42:00,
2013-04-07 11:47:00,78.5,37.3,29.92,SSW,203,3.8,6.3,23,0.00,,,0.00,WUHU216HW,2013-04-07 18:47:00,
2013-04-07 11:52:00,78.8,37.5,29.92,SSW,203,1.6,4.9,23,0.00,,,0.00,WUHU216HW,2013-04-07 18:52:00,
2013-04-07 11:57:00,78.8,36.5,29.92,East,90,1.6,5.1,22,0.00,,,0.00,WUHU216HW,2013-04-07 18:57:00,
2013-04-07 12:02:00,79.0,36.6,29.92,South,180,2.5,9.2,22,0.00,,,0.00,WUHU216HW,2013-04-07 19:02:00,
2013-04-07 12:07:00,79.6,37.1,29.92,SE,135,6.9,9.2,22,0.00,,,0.00,WUHU216HW,2013-04-07 19:07:00,
2013-04-07 12:12:00,80.1,36.5,29.92,WSW,248,5.4,8.5,21,0.00,,,0.00,WUHU216HW,2013-04-07 19:12:00,
2013-04-07 12:17:00,79.6,33.4,29.92,SW,225,2.5,9.8,19,0.00,,,0.00,WUHU216HW,2013-04-07 19:17:00,
2013-04-07 12:22:00,79.4,33.2,29.91,WNW,293,3.4,9.8,19,0.00,,,0.00,WUHU216HW,2013-04-07 19:22:00,
2013-04-07 12:28:00,79.2,33.0,29.91,SW,225,4.9,6.3,19,0.00,,,0.00,WUHU216HW,2013-04-07 19:28:00,
2013-04-07 12:34:00,79.4,31.5,29.91,WNW,293,3.8,9.2,18,0.00,,,0.00,WUHU216HW,2013-04-07 19:34:00,
2013-04-07 12:39:00,79.7,31.9,29.91,SW,225,6.0,9.2,18,0.00,,,0.00,WUHU216HW,2013-04-07 19:39:00,
2013-04-07 12:44:00,80.5,30.8,29.91,WSW,248,7.2,10.3,17,0.00,,,0.00,WUHU216HW,2013-04-07 19:44:00,
2013-04-07 12:49:00,80.5,30.8,29.91,WSW,248,4.3,10.3,17,0.00,,,0.00,WUHU216HW,2013-04-07 19:49:00,
2013-04-07 12:54:00,80.6,31.0,29.90,SSW,203,6.9,7.8,17,0.00,,,0.00,WUHU216HW,2013-04-07 19:54:00,
2013-04-07 12:59:00,81.4,31.5,29.90,SW,225,6.5,8.1,17,0.00,,,0.00,WUHU216HW,2013-04-07 19:59:00,
2013-04-07 13:04:00,81.9,32.0,29.90,South,180,4.0,8.1,17,0.00,,,0.00,WUHU216HW,2013-04-07 20:04:00,
2013-04-07 13:09:00,82.3,32.2,29.90,SSE,158,2.9,6.7,17,0.00,,,0.00,WUHU216HW,2013-04-07 20:09:00,
2013-04-07 13:14:00,83.2,34.7,29.90,West,270,4.0,5.6,18,0.00,,,0.00,WUHU216HW,2013-04-07 20:14:00,
2013-04-07 13:19:00,83.3,29.6,29.90,West,270,10.1,10.3,15,0.00,,,0.00,WUHU216HW,2013-04-07 20:19:00,
2013-04-07 13:24:00,82.4,30.7,29.90,SW,225,10.3,10.3,16,0.00,,,0.00,WUHU216HW,2013-04-07 20:24:00,
2013-04-07 13:29:00,82.3,30.5,29.90,South,180,2.7,10.3,16,0.00,,,0.00,WUHU216HW,2013-04-07 20:29:00,
2013-04-07 13:35:00,82.4,30.7,29.89,West,270,5.1,10.3,16,0.00,,,0.00,WUHU216HW,2013-04-07 20:35:00,
2013-04-07 13:40:00,83.2,29.5,29.89,West,270,8.5,8.5,15,0.00,,,0.00,WUHU216HW,2013-04-07 20:40:00,
2013-04-07 13:45:00,83.2,29.5,29.89,WNW,293,2.7,9.4,15,0.00,,,0.00,WUHU216HW,2013-04-07 20:45:00,
2013-04-07 13:50:00,82.4,30.7,29.89,NNE,23,3.8,9.4,16,0.00,,,0.00,WUHU216HW,2013-04-07 20:50:00,
2013-04-07 13:55:00,82.4,30.7,29.89,West,270,4.9,10.1,16,0.00,,,0.00,WUHU216HW,2013-04-07 20:55:00,
2013-04-07 14:00:00,83.2,31.2,29.89,West,270,8.5,10.3,16,0.00,,,0.00,WUHU216HW,2013-04-07 21:00:00,
2013-04-07 14:05:00,83.3,29.6,29.88,WNW,293,5.8,10.3,15,0.00,,,0.00,WUHU216HW,2013-04-07 21:05:00,
2013-04-07 14:10:00,83.2,29.5,29.88,West,270,2.5,11.4,15,0.00,,,0.00,WUHU216HW,2013-04-07 21:10:00,
2013-04-07 14:15:00,83.7,31.6,29.88,SW,225,6.5,11.4,16,0.00,,,0.00,WUHU216HW,2013-04-07 21:15:00,
2013-04-07 14:20:00,84.1,31.9,29.88,West,270,11.0,11.0,16,0.00,,,0.00,WUHU216HW,2013-04-07 21:20:00,
2013-04-07 14:25:00,83.9,28.4,29.88,NW,315,8.1,11.9,14,0.00,,,0.00,WUHU216HW,2013-04-07 21:25:00,
2013-04-07 14:30:00,83.9,30.1,29.88,NE,45,0.7,11.9,15,0.00,,,0.00,WUHU216HW,2013-04-07 21:30:00,
2013-04-07 14:35:00,84.6,30.6,29.88,West,270,8.1,8.1,15,0.00,,,0.00,WUHU216HW,2013-04-07 21:35:00,
2013-04-07 14:40:00,85.0,27.5,29.88,North,0,3.4,8.1,13,0.00,,,0.00,WUHU216HW,2013-04-07 21:40:00,
2013-04-07 14:45:00,85.0,30.9,29.88,SSE,158,2.7,7.8,15,0.00,,,0.00,WUHU216HW,2013-04-07 21:45:00,
2013-04-07 14:50:00,85.1,27.6,29.88,NE,45,4.7,9.2,13,0.00,,,0.00,WUHU216HW,2013-04-07 21:50:00,
2013-04-07 14:55:00,85.0,27.5,29.87,WSW,248,0.2,9.2,13,0.00,,,0.00,WUHU216HW,2013-04-07 21:55:00,
2013-04-07 15:00:00,85.1,27.6,29.87,NW,315,4.3,7.8,13,0.00,,,0.00,WUHU216HW,2013-04-07 22:00:00,
2013-04-07 15:05:00,84.6,27.2,29.86,West,270,7.8,7.8,13,0.00,,,0.00,WUHU216HW,2013-04-07 22:05:00,
2013-04-07 15:10:00,85.0,27.5,29.87,WNW,293,6.9,11.9,13,0.00,,,0.00,WUHU216HW,2013-04-07 22:10:00,
2013-04-07 15:15:00,84.6,25.5,29.86,WSW,248,10.7,15.4,12,0.00,,,0.00,WUHU216HW,2013-04-07 22:15:00,
2013-04-07 15:20:00,84.4,27.1,29.87,West,270,7.2,15.4,13,0.00,,,0.00,WUHU216HW,2013-04-07 22:20:00,
2013-04-07 15:25:00,84.8,27.4,29.87,WNW,293,5.4,11.6,13,0.00,,,0.00,WUHU216HW,2013-04-07 22:25:00,
2013-04-07 15:30:00,85.3,27.8,29.86,West,270,9.6,11.2,13,0.00,,,0.00,WUHU216HW,2013-04-07 22:30:00,
2013-04-07 15:35:00,85.5,27.9,29.86,WNW,293,3.6,10.3,13,0.00,,,0.00,WUHU216HW,2013-04-07 22:35:00,
2013-04-07 15:40:00,85.7,28.1,29.86,NW,315,2.7,10.3,13,0.00,,,0.00,WUHU216HW,2013-04-07 22:40:00,
2013-04-07 15:45:00,85.1,27.6,29.86,West,270,4.7,7.8,13,0.00,,,0.00,WUHU216HW,2013-04-07 22:45:00,
2013-04-07 15:50:00,84.6,27.2,29.86,WNW,293,6.0,9.8,13,0.00,,,0.00,WUHU216HW,2013-04-07 22:50:00,
2013-04-07 15:56:00,84.6,27.2,29.85,West,270,8.7,9.8,13,0.00,,,0.00,WUHU216HW,2013-04-07 22:56:00,
2013-04-07 16:01:00,84.6,27.2,29.86,NW,315,3.6,9.2,13,0.00,,,0.00,WUHU216HW,2013-04-07 23:01:00,
2013-04-07 16:06:00,84.4,27.1,29.85,WSW,248,6.3,12.5,13,0.00,,,0.00,WUHU216HW,2013-04-07 23:06:00,
2013-04-07 16:12:00,84.6,25.5,29.85,SW,225,6.7,12.5,12,0.00,,,0.00,WUHU216HW,2013-04-07 23:12:00,
2013-04-07 16:17:00,84.4,25.4,29.86,WSW,248,8.3,18.8,12,0.00,,,0.00,WUHU216HW,2013-04-07 23:17:00,
2013-04-07 16:22:00,84.6,27.2,29.85,WSW,248,5.8,18.8,13,0.00,,,0.00,WUHU216HW,2013-04-07 23:22:00,
2013-04-07 16:27:00,85.0,25.7,29.86,West,270,8.7,13.0,12,0.00,,,0.00,WUHU216HW,2013-04-07 23:27:00,
2013-04-07 16:32:00,85.0,27.5,29.85,WSW,248,7.6,13.0,13,0.00,,,0.00,WUHU216HW,2013-04-07 23:32:00,
2013-04-07 16:37:00,85.3,27.8,29.85,South,180,5.4,12.5,13,0.00,,,0.00,WUHU216HW,2013-04-07 23:37:00,
2013-04-07 16:42:00,85.7,28.1,29.85,West,270,4.9,12.1,13,0.00,,,0.00,WUHU216HW,2013-04-07 23:42:00,
2013-04-07 16:47:00,85.1,27.6,29.85,North,0,3.6,14.8,13,0.00,,,0.00,WUHU216HW,2013-04-07 23:47:00,
2013-04-07 16:52:00,85.1,27.6,29.85,NW,315,7.4,14.8,13,0.00,,,0.00,WUHU216HW,2013-04-07 23:52:00,
2013-04-07 16:57:00,85.1,27.6,29.85,West,270,7.8,10.5,13,0.00,,,0.00,WUHU216HW,2013-04-07 23:57:00,
2013-04-07 17:02:00,84.8,27.4,29.85,WNW,293,3.8,13.0,13,0.00,,,0.00,WUHU216HW,2013-04-08 00:02:00,
2013-04-07 17:07:00,85.0,27.5,29.85,WNW,293,4.0,13.0,13,0.00,,,0.00,WUHU216HW,2013-04-08 00:07:00,
2013-04-07 17:12:00,85.0,27.5,29.85,North,0,4.0,9.6,13,0.00,,,0.00,WUHU216HW,2013-04-08 00:12:00,
2013-04-07 17:17:00,84.4,27.1,29.85,NW,315,4.7,7.8,13,0.00,,,0.00,WUHU216HW,2013-04-08 00:17:00,
2013-04-07 17:22:00,83.9,30.1,29.85,North,0,7.6,7.6,15,0.00,,,0.00,WUHU216HW,2013-04-08 00:22:00,
2013-04-07 17:27:00,83.9,28.4,29.85,WNW,293,6.7,11.4,14,0.00,,,0.00,WUHU216HW,2013-04-08 00:27:00,
2013-04-07 17:32:00,83.9,26.6,29.85,WNW,293,7.6,11.4,13,0.00,,,0.00,WUHU216HW,2013-04-08 00:32:00,
2013-04-07 17:37:00,83.5,26.4,29.85,NW,315,6.5,12.1,13,0.00,,,0.00,WUHU216HW,2013-04-08 00:37:00,
2013-04-07 17:42:00,83.2,29.5,29.85,WNW,293,7.6,12.1,15,0.00,,,0.00,WUHU216HW,2013-04-08 00:42:00,
2013-04-07 17:47:00,83.3,28.0,29.85,NW,315,3.4,9.4,14,0.00,,,0.00,WUHU216HW,2013-04-08 00:47:00,
2013-04-07 17:52:00,83.3,28.0,29.85,NNW,338,7.2,9.2,14,0.00,,,0.00,WUHU216HW,2013-04-08 00:52:00,
2013-04-07 17:57:00,82.8,29.3,29.85,NW,315,5.4,7.6,15,0.00,,,0.00,WUHU216HW,2013-04-08 00:57:00,
2013-04-07 18:02:00,82.6,29.1,29.85,West,270,6.9,8.9,15,0.00,,,0.00,WUHU216HW,2013-04-08 01:02:00,
2013-04-07 18:07:00,82.4,25.6,29.85,WNW,293,6.9,8.9,13,0.00,,,0.00,WUHU216HW,2013-04-08 01:07:00,
2013-04-07 18:12:00,82.1,28.7,29.85,WNW,293,4.7,7.2,15,0.00,,,0.00,WUHU216HW,2013-04-08 01:12:00,
2013-04-07 18:17:00,81.7,28.5,29.85,WNW,293,6.9,7.8,15,0.00,,,0.00,WUHU216HW,2013-04-08 01:17:00,
2013-04-07 18:22:00,81.2,28.0,29.85,WNW,293,2.7,7.8,15,0.00,,,0.00,WUHU216HW,2013-04-08 01:22:00,
2013-04-07 18:27:00,80.8,27.7,29.85,WNW,293,3.8,6.9,15,0.00,,,0.00,WUHU216HW,2013-04-08 01:27:00,
2013-04-07 18:32:00,80.3,27.3,29.85,West,270,2.9,6.3,15,0.00,,,0.00,WUHU216HW,2013-04-08 01:32:00,
2013-04-07 18:37:00,79.7,26.8,29.85,NW,315,5.6,8.7,15,0.00,,,0.00,WUHU216HW,2013-04-08 01:37:00,
2013-04-07 18:43:00,79.4,26.5,29.85,WNW,293,5.4,8.7,15,0.00,,,0.00,WUHU216HW,2013-04-08 01:43:00,
2013-04-07 18:48:00,78.8,26.0,29.84,WNW,293,8.1,8.5,15,0.00,,,0.00,WUHU216HW,2013-04-08 01:48:00,
2013-04-07 18:53:00,78.7,25.9,29.84,NNW,338,4.7,8.5,15,0.00,,,0.00,WUHU216HW,2013-04-08 01:53:00,
2013-04-07 18:58:00,78.3,25.6,29.84,NNW,338,6.5,7.2,15,0.00,,,0.00,WUHU216HW,2013-04-08 01:58:00,
2013-04-07 19:03:00,77.9,27.0,29.84,WNW,293,4.3,6.9,16,0.00,,,0.00,WUHU216HW,2013-04-08 02:03:00,
2013-04-07 19:08:00,77.6,26.7,29.84,West,270,5.4,8.5,16,0.00,,,0.00,WUHU216HW,2013-04-08 02:08:00,
2013-04-07 19:13:00,77.4,26.6,29.84,WNW,293,4.3,8.5,16,0.00,,,0.00,WUHU216HW,2013-04-08 02:13:00,
2013-04-07 19:18:00,77.0,28.0,29.84,North,0,4.3,6.5,17,0.00,,,0.00,WUHU216HW,2013-04-08 02:18:00,
2013-04-07 19:23:00,76.9,27.8,29.84,NNW,338,4.0,6.5,17,0.00,,,0.00,WUHU216HW,2013-04-08 02:23:00,
2013-04-07 19:28:00,76.7,27.7,29.84,NW,315,4.9,7.2,17,0.00,,,0.00,WUHU216HW,2013-04-08 02:28:00,
2013-04-07 19:33:00,76.7,29.3,29.84,NW,315,2.9,7.2,18,0.00,,,0.00,WUHU216HW,2013-04-08 02:33:00,
2013-04-07 19:38:00,76.3,29.1,29.84,NW,315,3.6,7.2,18,0.00,,,0.00,WUHU216HW,2013-04-08 02:38:00,
2013-04-07 19:43:00,76.3,29.1,29.84,North,0,4.0,5.6,18,0.00,,,0.00,WUHU216HW,2013-04-08 02:43:00,
2013-04-07 19:49:00,76.1,28.9,29.84,NW,315,3.6,6.3,18,0.00,,,0.00,WUHU216HW,2013-04-08 02:49:00,
2013-04-07 19:54:00,76.0,28.8,29.84,WNW,293,3.4,6.7,18,0.00,,,0.00,WUHU216HW,2013-04-08 02:54:00,
2013-04-07 19:59:00,75.8,28.6,29.84,NW,315,1.8,4.7,18,0.00,,,0.00,WUHU216HW,2013-04-08 02:59:00,
2013-04-07 20:04:00,75.4,28.4,29.84,NW,315,1.8,4.5,18,0.00,,,0.00,WUHU216HW,2013-04-08 03:04:00,
2013-04-07 20:10:00,75.1,28.1,29.84,NNW,338,4.0,4.0,18,0.00,,,0.00,WUHU216HW,2013-04-08 03:10:00,
2013-04-07 20:15:00,74.9,27.9,29.84,NW,315,2.0,4.0,18,0.00,,,0.00,WUHU216HW,2013-04-08 03:15:00,
2013-04-07 20:20:00,74.7,29.4,29.84,NW,315,1.6,4.0,19,0.00,,,0.00,WUHU216HW,2013-04-08 03:20:00,
2013-04-07 20:25:00,74.5,29.3,29.84,NW,315,1.1,4.7,19,0.00,,,0.00,WUHU216HW,2013-04-08 03:25:00,
2013-04-07 20:30:00,74.2,29.0,29.84,NNW,338,1.8,4.7,19,0.00,,,0.00,WUHU216HW,2013-04-08 03:30:00,
2013-04-07 20:35:00,74.2,29.0,29.84,North,0,1.1,2.2,19,0.00,,,0.00,WUHU216HW,2013-04-08 03:35:00,
2013-04-07 20:40:00,73.8,28.7,29.83,NNW,338,0.9,2.0,19,0.00,,,0.00,WUHU216HW,2013-04-08 03:40:00,
2013-04-07 20:46:00,73.8,28.7,29.82,North,0,0.2,2.0,19,0.00,,,0.00,WUHU216HW,2013-04-08 03:46:00,
2013-04-07 20:51:00,73.4,28.5,29.82,North,0,0.0,1.8,19,0.00,,,0.00,WUHU216HW,2013-04-08 03:51:00,
2013-04-07 20:56:00,73.3,29.9,29.82,North,0,0.0,1.1,20,0.00,,,0.00,WUHU216HW,2013-04-08 03:56:00,
2013-04-07 21:00:00,73.1,30.8,29.82,NW,315,1.8,2.0,21,0.00,,,0.00,WUHU216HW,2013-04-08 04:00:00,
2013-04-07 21:05:00,72.9,30.6,29.81,NW,315,2.2,2.2,21,0.00,,,0.00,WUHU216HW,2013-04-08 04:05:00,
2013-04-07 21:10:00,72.7,30.4,29.81,NNW,338,1.1,2.5,21,0.00,,,0.00,WUHU216HW,2013-04-08 04:10:00,
2013-04-07 21:15:00,72.7,30.4,29.80,NNW,338,0.0,2.5,21,0.00,,,0.00,WUHU216HW,2013-04-08 04:15:00,
2013-04-07 21:20:00,72.7,30.4,29.80,NNW,338,0.0,1.3,21,0.00,,,0.00,WUHU216HW,2013-04-08 04:20:00,
2013-04-07 21:25:00,72.4,30.2,29.80,East,90,2.0,2.0,21,0.00,,,0.00,WUHU216HW,2013-04-08 04:25:00,
2013-04-07 21:30:00,72.2,30.0,29.80,SW,225,3.8,6.3,21,0.00,,,0.00,WUHU216HW,2013-04-08 04:30:00,
2013-04-07 21:35:00,72.0,30.8,29.81,WNW,293,2.9,6.3,22,0.00,,,0.00,WUHU216HW,2013-04-08 04:35:00,
2013-04-07 21:40:00,71.8,30.7,29.81,West,270,2.9,3.8,22,0.00,,,0.00,WUHU216HW,2013-04-08 04:40:00,
2013-04-07 21:45:00,71.6,30.5,29.82,NW,315,2.5,3.6,22,0.00,,,0.00,WUHU216HW,2013-04-08 04:45:00,
2013-04-07 21:50:00,71.3,31.2,29.83,WNW,293,8.1,8.1,23,0.00,,,0.00,WUHU216HW,2013-04-08 04:50:00,
2013-04-07 21:55:00,71.1,31.1,29.83,NNW,338,6.3,8.1,23,0.00,,,0.00,WUHU216HW,2013-04-08 04:55:00,
2013-04-07 22:00:00,70.9,32.0,29.83,WNW,293,4.7,8.1,24,0.00,,,0.00,WUHU216HW,2013-04-08 05:00:00,
2013-04-07 22:05:00,70.6,31.7,29.83,WNW,293,4.7,6.7,24,0.00,,,0.00,WUHU216HW,2013-04-08 05:05:00,
2013-04-07 22:10:00,70.4,32.5,29.83,NNW,338,5.6,6.3,25,0.00,,,0.00,WUHU216HW,2013-04-08 05:10:00,
2013-04-07 22:15:00,70.2,32.3,29.83,NNW,338,4.0,6.3,25,0.00,,,0.00,WUHU216HW,2013-04-08 05:15:00,
2013-04-07 22:20:00,70.2,33.4,29.83,NW,315,4.7,6.3,26,0.00,,,0.00,WUHU216HW,2013-04-08 05:20:00,
2013-04-07 22:25:00,70.2,33.4,29.83,NNW,338,4.0,6.3,26,0.00,,,0.00,WUHU216HW,2013-04-08 05:25:00,
2013-04-07 22:30:00,70.2,35.4,29.83,NW,315,5.4,7.4,28,0.00,,,0.00,WUHU216HW,2013-04-08 05:30:00,
2013-04-07 22:35:00,70.2,35.4,29.83,NNW,338,4.7,7.4,28,0.00,,,0.00,WUHU216HW,2013-04-08 05:35:00,
2013-04-07 22:40:00,70.2,35.4,29.83,WNW,293,5.1,6.9,28,0.00,,,0.00,WUHU216HW,2013-04-08 05:40:00,
2013-04-07 22:45:00,70.4,36.5,29.82,NW,315,3.4,7.8,29,0.00,,,0.00,WUHU216HW,2013-04-08 05:45:00,
2013-04-07 22:51:00,70.4,36.5,29.82,NW,315,5.1,7.8,29,0.00,,,0.00,WUHU216HW,2013-04-08 05:51:00,
2013-04-07 22:56:00,70.6,36.7,29.82,North,0,3.8,8.5,29,0.00,,,0.00,WUHU216HW,2013-04-08 05:56:00,
2013-04-07 23:01:00,70.6,36.7,29.82,NNW,338,4.7,8.5,29,0.00,,,0.00,WUHU216HW,2013-04-08 06:01:00,
2013-04-07 23:06:00,70.7,36.9,29.82,North,0,4.5,7.6,29,0.00,,,0.00,WUHU216HW,2013-04-08 06:06:00,
2013-04-07 23:11:00,70.6,36.7,29.82,WNW,293,4.0,7.6,29,0.00,,,0.00,WUHU216HW,2013-04-08 06:11:00,
2013-04-07 23:16:00,70.6,36.7,29.82,NNW,338,4.5,10.7,29,0.00,,,0.00,WUHU216HW,2013-04-08 06:16:00,
2013-04-07 23:21:00,70.6,36.7,29.82,NW,315,5.4,10.7,29,0.00,,,0.00,WUHU216HW,2013-04-08 06:21:00,
2013-04-07 23:26:00,70.4,37.5,29.81,NNW,338,6.7,8.7,30,0.00,,,0.00,WUHU216HW,2013-04-08 06:26:00,
2013-04-07 23:31:00,70.2,37.5,29.81,NW,315,3.4,7.8,30,0.00,,,0.00,WUHU216HW,2013-04-08 06:31:00,
2013-04-07 23:36:00,70.0,36.3,29.81,NW,315,5.4,7.8,29,0.00,,,0.00,WUHU216HW,2013-04-08 06:36:00,
2013-04-07 23:41:00,69.8,36.1,29.80,NW,315,2.7,6.3,29,0.00,,,0.00,WUHU216HW,2013-04-08 06:41:00,
2013-04-07 23:46:00,69.8,36.1,29.80,NW,315,3.4,6.3,29,0.00,,,0.00,WUHU216HW,2013-04-08 06:46:00,
2013-04-07 23:51:00,69.7,35.9,29.80,NW,315,2.5,6.3,29,0.00,,,0.00,WUHU216HW,2013-04-08 06:51:00,
2013-04-07 23:56:00,69.5,35.7,29.79,NW,315,4.9,4.9,29,0.00,,,0.00,WUHU216HW,2013-04-08 06:56:00,